Flag for Hong Kong Weather past 2 weeks in Kowloon, Hong Kong

Now
86 °F

Scattered clouds.


Feels Like: 93 °F
Forecast: 78 / 83 °F
Wind: 9 mph from Southwest

Location: National Airport

Current Time: May 5, 2015 at 1:15:32 PM

Latest Report: May 5, 2015 at 1:00 PM


Visibility: N/A

Pressure: 29.77 "Hg

Humidity: 66%

Dew point: 73 °F

Location of KowloonLocation

Historic Weather in Kowloon — Graph

°F

Kowloon temperature yesterday

Maximum temperature yesterday: 90 °F (at 1:30 PM)
Minimum temperature yesterday: 82 °F (at 1:00 AM)
Average temperature yesterday: 84 °F

Past Weeks' High & Low Weather Summary

 TemperatureHumidityPressure
High90 °F (Apr 29, 2:00 PM)94% (Apr 20, 10:30 PM)30.09 "Hg (Apr 20, 10:30 PM)
Low72 °F (Apr 20, 10:30 PM)44% (Apr 23, 9:30 AM)29.68 "Hg (Apr 20, 4:30 PM)
Average80 °F69%29.90 "Hg
* Reported Apr 20 12:00 Noon — May 5 12:30 PM, Kowloon, Weather by CustomWeather, © 2015

Note: Actual official high and low records may vary slightly from our data, if they occured in-between our weather recording intervals... More about our weather records

Advertising

Kowloon weather history for previous 24 hours

 ConditionsComfort  
Time TempWeatherWind HumidityBarometerVisibility
12:30 PM
Tue, May 5
86 °FScattered clouds.10 mph70%29.77 "HgN/A
12:00 PM86 °FScattered clouds.10 mph66%29.77 "HgN/A
11:30 AM86 °FScattered clouds.7 mph66%29.80 "HgN/A
11:00 AM88 °FPassing clouds.8 mph62%29.80 "HgN/A
10:30 AM86 °FScattered clouds.10 mph66%29.80 "HgN/A
10:00 AM86 °FScattered clouds.12 mph66%29.80 "HgN/A
9:30 AM86 °FPassing clouds.7 mph66%29.80 "HgN/A
9:00 AM84 °FScattered clouds.9 mph66%29.80 "HgN/A
8:30 AM84 °FScattered clouds.9 mph70%29.83 "HgN/A
8:00 AM84 °FScattered clouds.8 mph70%29.80 "HgN/A
7:30 AM82 °FScattered clouds.8 mph74%29.80 "HgN/A
7:00 AM82 °FScattered clouds.8 mph74%29.80 "HgN/A
6:30 AM82 °FScattered clouds.6 mph74%29.80 "HgN/A
6:00 AM82 °FScattered clouds.7 mph74%29.80 "HgN/A
5:00 AM82 °FPassing clouds.8 mph74%29.77 "HgN/A
4:30 AM82 °FPassing clouds.10 mph74%29.77 "HgN/A
4:00 AM82 °FPassing clouds.9 mph74%29.77 "HgN/A
3:30 AM82 °FPassing clouds.7 mph74%29.80 "HgN/A
3:00 AM82 °FPassing clouds.8 mph74%29.80 "HgN/A
2:30 AM82 °FPassing clouds.8 mph74%29.80 "HgN/A
2:00 AM82 °FPassing clouds.9 mph79%29.83 "HgN/A
1:30 AM82 °FPassing clouds.6 mph79%29.83 "HgN/A
1:00 AM84 °FPassing clouds.6 mph70%29.83 "HgN/A
12:30 AM82 °FPassing clouds.8 mph79%29.83 "HgN/A
12:00 AM82 °FPassing clouds.9 mph79%29.83 "HgN/A
11:30 PM
Mon, May 4
82 °FPassing clouds.7 mph79%29.86 "HgN/A
11:00 PM82 °FPassing clouds.9 mph79%29.83 "HgN/A
10:30 PM82 °FPassing clouds.6 mph79%29.86 "HgN/A
10:00 PM82 °FPassing clouds.8 mph79%29.83 "HgN/A
9:30 PM84 °FPassing clouds.12 mph70%29.83 "HgN/A
9:00 PM82 °FPassing clouds.13 mph74%29.83 "HgN/A
8:30 PM82 °FPassing clouds.10 mph79%29.80 "HgN/A
8:00 PM84 °FPassing clouds.10 mph74%29.80 "HgN/A
7:30 PM82 °FPassing clouds.8 mph79%29.77 "HgN/A
7:00 PM82 °FPassing clouds.8 mph79%29.77 "HgN/A
6:30 PM82 °FPassing clouds.9 mph79%29.77 "HgN/A
6:00 PM82 °FPassing clouds.12 mph79%29.74 "HgN/A
5:30 PM84 °FPassing clouds.12 mph74%29.74 "HgN/A
5:00 PM86 °FPassing clouds.12 mph70%29.74 "HgN/A
4:30 PM86 °FPassing clouds.10 mph70%29.74 "HgN/A
4:00 PM88 °FScattered clouds.12 mph66%29.74 "HgN/A
3:30 PM90 °FScattered clouds.9 mph59%29.74 "HgN/A
3:00 PM88 °FScattered clouds.12 mph62%29.77 "HgN/A
2:30 PM90 °FScattered clouds.12 mph63%29.77 "HgN/A
2:00 PM90 °FScattered clouds.13 mph59%29.80 "HgN/A
1:30 PM90 °FScattered clouds.13 mph59%29.80 "HgN/A
1:00 PM88 °FScattered clouds.13 mph66%29.83 "HgN/A
Weather by CustomWeather, © 2015

See weather overviewHow to use our weather pages